TimeEDT,TemperatureF,Dew PointF,Humidity,Sea Level PressureIn,VisibilityMPH,Wind Direction,Wind SpeedMPH,Gust SpeedMPH,PrecipitationIn,Events,Conditions,WindDirDegrees,DateUTC
12:15 AM,42.3,42.3,100,30.15,10.0,Calm,Calm,-,N/A,,Clear,0,2012-10-22 04:15:00
12:35 AM,41.0,41.0,100,30.15,10.0,Calm,Calm,-,N/A,,Clear,0,2012-10-22 04:35:00
12:55 AM,41.0,41.0,100,30.15,10.0,Calm,Calm,-,N/A,,Clear,0,2012-10-22 04:55:00
1:35 AM,40.5,40.5,100,30.15,10.0,Calm,Calm,-,N/A,,Clear,0,2012-10-22 05:35:00
1:55 AM,39.2,39.2,100,30.15,10.0,Calm,Calm,-,N/A,,Clear,0,2012-10-22 05:55:00
2:15 AM,38.8,38.8,100,30.15,10.0,Calm,Calm,-,N/A,,Clear,0,2012-10-22 06:15:00
2:55 AM,37.9,37.9,100,30.15,10.0,Calm,Calm,-,N/A,,Clear,0,2012-10-22 06:55:00
3:55 AM,38.1,38.1,100,30.16,10.0,Calm,Calm,-,N/A,,Clear,0,2012-10-22 07:55:00
4:15 AM,37.8,37.8,100,30.16,10.0,Calm,Calm,-,N/A,,Clear,0,2012-10-22 08:15:00
4:35 AM,37.4,37.4,100,30.16,10.0,Calm,Calm,-,N/A,,Clear,0,2012-10-22 08:35:00
4:55 AM,36.9,36.9,100,30.16,10.0,Calm,Calm,-,N/A,,Clear,0,2012-10-22 08:55:00
5:15 AM,37.0,37.0,100,30.17,10.0,Calm,Calm,-,N/A,,Clear,0,2012-10-22 09:15:00
5:55 AM,36.7,36.7,100,30.17,10.0,Calm,Calm,-,N/A,,Clear,0,2012-10-22 09:55:00
6:15 AM,37.4,37.4,100,30.18,10.0,Calm,Calm,-,N/A,,Clear,0,2012-10-22 10:15:00
6:35 AM,37.4,37.4,100,30.18,10.0,Calm,Calm,-,N/A,,Clear,0,2012-10-22 10:35:00
7:15 AM,36.5,36.5,100,30.19,10.0,Calm,Calm,-,N/A,,Clear,0,2012-10-22 11:15:00
7:35 AM,36.7,36.7,100,30.20,10.0,Calm,Calm,-,N/A,,Clear,0,2012-10-22 11:35:00
8:15 AM,41.2,41.2,100,30.21,10.0,Calm,Calm,-,N/A,,Clear,0,2012-10-22 12:15:00
9:15 AM,52.7,46.2,79,30.22,10.0,West,3.5,-,N/A,,Clear,270,2012-10-22 13:15:00
9:35 AM,54.7,46.0,73,30.23,10.0,West,4.6,-,N/A,,Clear,280,2012-10-22 13:35:00
10:15 AM,58.8,47.7,66,30.22,10.0,WSW,4.6,-,N/A,,Clear,250,2012-10-22 14:15:00
10:35 AM,60.8,47.8,62,30.22,10.0,Calm,Calm,-,N/A,,Clear,0,2012-10-22 14:35:00
10:55 AM,61.7,47.3,59,30.22,10.0,WNW,3.5,-,N/A,,Clear,300,2012-10-22 14:55:00
11:15 AM,63.5,46.9,55,30.22,10.0,Calm,Calm,-,N/A,,Clear,0,2012-10-22 15:15:00
11:35 AM,64.4,46.0,51,30.22,10.0,Calm,Calm,-,N/A,,Clear,0,2012-10-22 15:35:00
11:55 AM,65.8,45.1,47,30.21,10.0,SW,3.5,-,N/A,,Clear,230,2012-10-22 15:55:00
12:15 PM,67.1,45.5,46,30.21,10.0,Calm,Calm,-,N/A,,Clear,0,2012-10-22 16:15:00
12:35 PM,68.0,44.4,43,30.20,10.0,WSW,3.5,-,N/A,,Clear,240,2012-10-22 16:35:00
12:55 PM,68.4,44.8,43,30.19,10.0,West,3.5,-,N/A,,Clear,260,2012-10-22 16:55:00
1:15 PM,69.4,44.4,41,30.18,10.0,West,6.9,-,N/A,,Clear,270,2012-10-22 17:15:00
1:35 PM,70.3,45.0,40,30.17,10.0,SW,3.5,-,N/A,,Clear,220,2012-10-22 17:35:00
1:55 PM,70.0,44.8,40,30.17,10.0,West,4.6,-,N/A,,Clear,270,2012-10-22 17:55:00
2:15 PM,69.8,44.8,41,30.16,10.0,WSW,8.1,-,N/A,,Clear,240,2012-10-22 18:15:00
2:35 PM,69.6,44.2,40,30.15,10.0,West,3.5,-,N/A,,Clear,260,2012-10-22 18:35:00
2:55 PM,70.7,44.2,39,30.15,10.0,West,4.6,-,N/A,,Clear,270,2012-10-22 18:55:00
3:15 PM,70.7,44.1,38,30.15,10.0,West,3.5,-,N/A,,Clear,270,2012-10-22 19:15:00
3:55 PM,72.1,42.6,34,30.14,10.0,West,6.9,-,N/A,,Clear,280,2012-10-22 19:55:00
4:15 PM,72.0,43.3,36,30.13,10.0,West,3.5,-,N/A,,Clear,270,2012-10-22 20:15:00
4:35 PM,71.8,42.4,35,30.13,10.0,SW,5.8,-,N/A,,Clear,230,2012-10-22 20:35:00
4:55 PM,71.4,42.6,35,30.13,10.0,West,3.5,-,N/A,,Clear,270,2012-10-22 20:55:00
5:15 PM,70.9,43.5,37,30.13,10.0,West,3.5,-,N/A,,Clear,260,2012-10-22 21:15:00
5:35 PM,69.6,43.3,39,30.13,10.0,Calm,Calm,-,N/A,,Clear,0,2012-10-22 21:35:00
5:55 PM,64.4,49.3,58,30.13,10.0,Calm,Calm,-,N/A,,Clear,0,2012-10-22 21:55:00
6:15 PM,60.8,47.1,61,30.13,10.0,Calm,Calm,-,N/A,,Clear,0,2012-10-22 22:15:00
6:35 PM,57.0,48.6,73,30.13,10.0,Calm,Calm,-,N/A,,Clear,0,2012-10-22 22:35:00
7:15 PM,53.2,47.7,81,30.14,10.0,Calm,Calm,-,N/A,,Clear,0,2012-10-22 23:15:00
7:35 PM,50.9,48.7,92,30.15,10.0,Calm,Calm,-,N/A,,Clear,0,2012-10-22 23:35:00
7:55 PM,51.4,50.0,95,30.15,10.0,Calm,Calm,-,N/A,,Clear,0,2012-10-22 23:55:00
8:15 PM,50.5,49.1,95,30.15,10.0,Calm,Calm,-,N/A,,Clear,0,2012-10-23 00:15:00
8:35 PM,50.9,48.7,92,30.15,10.0,Calm,Calm,-,N/A,,Clear,0,2012-10-23 00:35:00
8:55 PM,49.5,49.1,99,30.15,10.0,Calm,Calm,-,N/A,,Clear,0,2012-10-23 00:55:00
9:15 PM,48.7,48.7,100,30.16,10.0,Calm,Calm,-,N/A,,Clear,0,2012-10-23 01:15:00
9:35 PM,48.2,48.2,100,30.16,10.0,Calm,Calm,-,N/A,,Clear,0,2012-10-23 01:35:00
9:55 PM,47.1,47.1,100,30.16,10.0,Calm,Calm,-,N/A,,Clear,0,2012-10-23 01:55:00
10:15 PM,47.3,47.3,100,30.16,10.0,Calm,Calm,-,N/A,,Clear,0,2012-10-23 02:15:00
10:35 PM,46.4,46.4,100,30.16,10.0,Calm,Calm,-,N/A,,Clear,0,2012-10-23 02:35:00
10:55 PM,46.8,46.8,100,30.16,10.0,Calm,Calm,-,N/A,,Clear,0,2012-10-23 02:55:00
11:15 PM,46.6,46.6,100,30.16,10.0,Calm,Calm,-,N/A,,Clear,0,2012-10-23 03:15:00
11:35 PM,45.7,45.7,100,30.15,10.0,Calm,Calm,-,N/A,,Clear,0,2012-10-23 03:35:00
11:55 PM,46.6,46.6,100,30.15,10.0,Calm,Calm,-,N/A,,Clear,0,2012-10-23 03:55:00